| ตารางข้อมูล | ค้นข้อมูล1 | ค้นข้อมูล2 | ค่าสูงสุด-ต่ำสุด |  

Select Sensor -->| 20402 | 4529A | 4529C | 4529D | 89M1A | 89M1B | หน้าจอย่อ | 4529 |
ข้อมูลรวม (ยังไม่ได้เลือก Sensor)

IDDate TimeRoom  Temp  Humidity RSSI Time
 1150784  2026-08-31 11:40:07  89M1B  33.0 °C  66.9 %   11:40 
 1150783  2026-08-31 11:39:57  4529A  29.6 °C  63.7 %   11:39 
 1150782  2026-08-31 11:39:49  4529D  29.9 °C  70.6 %   11:39 
 1150781  2026-08-31 11:39:22  4529C  30.2 °C  58.3 %   11:39 
 1150780  2026-08-31 11:37:28  89M1A  33.8 °C  65.6 %   11:37 
 1150779  2026-08-31 11:33:13  20402  30.0 °C  46.8 %   11:33 
 1150778  2026-08-31 11:30:28  89M1B  32.6 °C  66.9 %   11:30 
 1150777  2026-08-31 11:30:16  4529D  29.7 °C  70.5 %   11:30 
 1150776  2026-08-31 11:29:51  4529A  29.7 °C  65.8 %   11:29 
 1150775  2026-08-31 11:29:07  4529C  30.0 °C  58.4 %   11:29 
 1150774  2026-08-31 11:27:53  89M1A  34.1 °C  65.0 %   11:27 
 1150773  2026-08-31 11:23:03  20402  29.9 °C  46.5 %   11:23 
 1150772  2026-08-31 11:20:49  89M1B  32.8 °C  66.5 %   11:20 
 1150771  2026-08-31 11:20:43  4529D  29.6 °C  70.4 %   11:20 
 1150770  2026-08-31 11:19:49  4529A  29.9 °C  67.4 %   11:19 
 1150769  2026-08-31 11:18:54  4529C  30.0 °C  58.1 %   11:18 
 1150768  2026-08-31 11:18:15  89M1A  34.1 °C  63.3 %   11:18 
 1150767  2026-08-31 11:12:53  20402  29.9 °C  46.2 %   11:12 
 1150766  2026-08-31 11:11:10  89M1B  32.6 °C  66.5 %   11:11 
 1150765  2026-08-31 11:11:10  4529D  29.5 °C  70.3 %   11:11 
 1150764  2026-08-31 11:09:47  4529A  29.6 °C  63.7 %   11:09 
 1150763  2026-08-31 11:08:41  4529C  29.9 °C  57.9 %   11:08 
 1150762  2026-08-31 11:08:37  89M1A  33.6 °C  63.0 %   11:08 
 1150761  2026-08-31 11:02:42  20402  29.8 °C  45.8 %   11:02 
 1150760  2026-08-31 11:01:37  4529D  29.4 °C  70.0 %   11:01 
 1150759  2026-08-31 11:01:34  89M1B  32.5 °C  67.2 %   11:01 
 1150758  2026-08-31 10:59:44  4529A  29.9 °C  67.2 %   10:59 
 1150757  2026-08-31 10:59:01  89M1A  34.1 °C  62.0 %   10:59 
 1150756  2026-08-31 10:58:28  4529C  29.8 °C  57.8 %   10:58 
 1150755  2026-08-31 10:52:33  20402  29.7 °C  45.4 %   10:52 
 1150754  2026-08-31 10:52:04  4529D  29.4 °C  70.0 %   10:52 
 1150753  2026-08-31 10:51:51  89M1B  32.4 °C  67.7 %   10:51 
 1150752  2026-08-31 10:49:42  4529A  30.0 °C  65.7 %   10:49 
 1150751  2026-08-31 10:49:23  89M1A  34.5 °C  62.7 %   10:49 
 1150750  2026-08-31 10:48:15  4529C  29.8 °C  57.7 %   10:48 
 1150749  2026-08-31 10:42:31  4529D  29.4 °C  70.1 %   10:42 
 1150748  2026-08-31 10:42:23  20402  29.7 °C  45.0 %   10:42 
 1150747  2026-08-31 10:42:12  89M1B  32.2 °C  67.9 %   10:42 
 1150746  2026-08-31 10:39:44  89M1A  34.4 °C  61.7 %   10:39 
 1150745  2026-08-31 10:39:39  4529A  29.6 °C  67.1 %   10:39 
 1150744  2026-08-31 10:38:01  4529C  29.8 °C  57.2 %   10:38 
 1150743  2026-08-31 10:32:58  4529D  29.4 °C  70.2 %   10:32 
 1150742  2026-08-31 10:32:33  89M1B  32.1 °C  68.2 %   10:32 
 1150741  2026-08-31 10:32:13  20402  29.7 °C  45.0 %   10:32 
 1150740  2026-08-31 10:30:06  89M1A  34.3 °C  61.2 %   10:30 
 1150739  2026-08-31 10:29:37  4529A  30.0 °C  69.0 %   10:29 
 1150738  2026-08-31 10:27:48  4529C  29.8 °C  57.2 %   10:27 
 1150737  2026-08-31 10:23:25  4529D  29.4 °C  70.1 %   10:23 
 1150736  2026-08-31 10:22:55  89M1B  32.1 °C  68.5 %   10:22 
 1150735  2026-08-31 10:22:00  20402  29.5 °C  43.8 %   10:22 
 1150734  2026-08-31 10:20:28  89M1A  34.3 °C  62.2 %   10:20 
 1150733  2026-08-31 10:19:34  4529A  29.3 °C  67.2 %   10:19 
 1150732  2026-08-31 10:17:33  4529C  29.8 °C  56.6 %   10:17 
 1150731  2026-08-31 10:13:52  4529D  29.4 °C  70.1 %   10:13 
 1150730  2026-08-31 10:13:16  89M1B  32.0 °C  68.4 %   10:13 
 1150729  2026-08-31 10:11:50  20402  29.4 °C  43.0 %   10:11 
 1150728  2026-08-31 10:10:50  89M1A  33.8 °C  64.0 %   10:10 
 1150727  2026-08-31 10:09:32  4529A  29.4 °C  71.3 %   10:09 
 1150726  2026-08-31 10:07:20  4529C  29.8 °C  56.6 %   10:07 
 1150725  2026-08-31 10:04:20  4529D  29.5 °C  70.1 %   10:04 
 1150724  2026-08-31 10:03:37  89M1B  31.8 °C  68.3 %   10:03 
 1150723  2026-08-31 10:01:40  20402  29.2 °C  42.3 %   10:01 
 1150722  2026-08-31 10:01:11  89M1A  33.2 °C  64.6 %   10:01 
 1150721  2026-08-31 09:59:27  4529A  29.4 °C  71.4 %   09:59 
 1150720  2026-08-31 09:57:05  4529C  30.5 °C  54.2 %   09:57 
 1150719  2026-08-31 09:54:47  4529D  29.3 °C  70.0 %   09:54 
 1150718  2026-08-31 09:53:58  89M1B  31.8 °C  68.4 %   09:53 
 1150717  2026-08-31 09:51:32  89M1A  32.9 °C  65.6 %   09:51 
 1150716  2026-08-31 09:51:29  20402  29.1 °C  41.8 %   09:51 
 1150715  2026-08-31 09:49:13  4529A  29.7 °C  70.1 %   09:49 
 1150714  2026-08-31 09:46:52  4529C  30.4 °C  54.3 %   09:46 
 1150713  2026-08-31 09:45:14  4529D  29.4 °C  70.0 %   09:45 
 1150712  2026-08-31 09:44:19  89M1B  31.8 °C  68.8 %   09:44 
 1150711  2026-08-31 09:41:54  89M1A  33.2 °C  64.0 %   09:41 
 1150710  2026-08-31 09:41:19  20402  28.9 °C  41.7 %   09:41 
 1150709  2026-08-31 09:39:01  4529A  29.6 °C  67.6 %   09:39 
 1150708  2026-08-31 09:36:49  4529C  30.4 °C  54.4 %   09:36 
 1150707  2026-08-31 09:35:41  4529D  29.4 °C  70.3 %   09:35 
 1150706  2026-08-31 09:34:41  89M1B  31.6 °C  68.8 %   09:34 
 1150705  2026-08-31 09:32:15  89M1A  32.6 °C  65.7 %   09:32 
 1150704  2026-08-31 09:31:09  20402  28.3 °C  41.8 %   09:31 
 1150703  2026-08-31 09:28:53  4529A  29.7 °C  70.3 %   09:28 
 1150702  2026-08-31 09:26:47  4529C  30.3 °C  55.3 %   09:26 
 1150701  2026-08-31 09:26:08  4529D  29.3 °C  70.3 %   09:26 
 1150700  2026-08-31 09:25:02  89M1B  31.5 °C  69.3 %   09:25 
 1150699  2026-08-31 09:22:39  89M1A  33.0 °C  65.7 %   09:22 
 1150698  2026-08-31 09:20:59  20402  27.0 °C  43.2 %   09:20 
 1150697  2026-08-31 09:18:50  4529A  29.2 °C  70.5 %   09:18 
 1150696  2026-08-31 09:16:45  4529C  30.3 °C  56.1 %   09:16 
 1150695  2026-08-31 09:16:35  4529D  29.3 °C  70.4 %   09:16 
 1150694  2026-08-31 09:15:24  89M1B  31.3 °C  69.4 %   09:15 
 1150693  2026-08-31 09:13:02  89M1A  32.9 °C  66.5 %   09:13 
 1150692  2026-08-31 09:10:49  20402  27.2 °C  44.0 %   09:10 
 1150691  2026-08-31 09:08:43  4529A  29.3 °C  67.3 %   09:08 
 1150690  2026-08-31 09:07:02  4529D  29.2 °C  70.3 %   09:07 
 1150689  2026-08-31 09:06:42  4529C  30.2 °C  56.4 %   09:06 
 1150688  2026-08-31 09:05:45  89M1B  31.4 °C  69.3 %   09:05 
 1150687  2026-08-31 09:03:23  89M1A  32.0 °C  67.8 %   09:03 
 1150686  2026-08-31 09:00:39  20402  27.6 °C  45.3 %   09:00 
 1150685  2026-08-31 08:58:31  4529A  29.3 °C  71.0 %   08:58 
 1150684  2026-08-31 08:57:30  4529D  29.2 °C  70.3 %   08:57 
 1150683  2026-08-31 08:56:40  4529C  30.1 °C  56.8 %   08:56 
 1150682  2026-08-31 08:56:07  89M1B  31.3 °C  69.2 %   08:56 
 1150681  2026-08-31 08:53:45  89M1A  31.8 °C  68.3 %   08:53 
 1150680  2026-08-31 08:50:29  20402  27.9 °C  47.4 %   08:50 
 1150679  2026-08-31 08:48:20  4529A  29.1 °C  69.5 %   08:48 
 1150678  2026-08-31 08:47:57  4529D  29.2 °C  70.2 %   08:47 
 1150677  2026-08-31 08:46:37  4529C  30.1 °C  56.6 %   08:46 
 1150676  2026-08-31 08:46:28  89M1B  31.2 °C  69.5 %   08:46 
 1150675  2026-08-31 08:44:07  89M1A  31.6 °C  70.6 %   08:44 
 1150674  2026-08-31 08:40:19  20402  28.4 °C  50.5 %   08:40 
 1150673  2026-08-31 08:38:25  4529D  29.4 °C  69.8 %   08:38 
 1150672  2026-08-31 08:38:09  4529A  29.5 °C  71.1 %   08:38 
 1150671  2026-08-31 08:36:48  89M1B  31.1 °C  69.2 %   08:36 
 1150670  2026-08-31 08:36:35  4529C  30.0 °C  56.6 %   08:36 
 1150669  2026-08-31 08:34:30  89M1A  31.3 °C  71.8 %   08:34 
 1150668  2026-08-31 08:30:10  20402  29.4 °C  55.1 %   08:30 
 1150667  2026-08-31 08:28:52  4529D  29.2 °C  69.7 %   08:28 
 1150666  2026-08-31 08:27:58  4529A  29.3 °C  70.7 %   08:27 
 1150665  2026-08-31 08:27:10  89M1B  31.3 °C  69.3 %   08:27 
 1150664  2026-08-31 08:26:32  4529C  30.0 °C  56.7 %   08:26 
 1150663  2026-08-31 08:24:51  89M1A  30.9 °C  73.2 %   08:24 
 1150662  2026-08-31 08:20:00  20402  30.2 °C  56.6 %   08:20 
 1150661  2026-08-31 08:19:19  4529D  29.2 °C  69.7 %   08:19 
 1150660  2026-08-31 08:17:46  4529A  29.0 °C  68.7 %   08:17 
 1150659  2026-08-31 08:17:31  89M1B  31.1 °C  69.4 %   08:17 
 1150658  2026-08-31 08:16:30  4529C  29.9 °C  56.7 %   08:16 
 1150657  2026-08-31 08:15:14  89M1A  30.7 °C  73.0 %   08:15 
 1150656  2026-08-31 08:09:50  20402  30.3 °C  56.7 %   08:09 
 1150655  2026-08-31 08:09:47  4529D  29.2 °C  69.4 %   08:09 
 1150654  2026-08-31 08:07:52  89M1B  31.1 °C  69.4 %   08:07 
 1150653  2026-08-31 08:07:35  4529A  29.5 °C  70.7 %   08:07 
 1150652  2026-08-31 08:06:27  4529C  29.9 °C  56.4 %   08:06 
 1150651  2026-08-31 08:05:36  89M1A  30.4 °C  74.3 %   08:05 
 1150650  2026-08-31 08:00:15  4529D  29.2 °C  69.1 %   08:00 
 1150649  2026-08-31 07:59:40  20402  30.3 °C  56.7 %   07:59 
 1150648  2026-08-31 07:58:13  89M1B  31.1 °C  69.3 %   07:58 
 1150647  2026-08-31 07:57:23  4529A  29.4 °C  70.5 %   07:57 
 1150646  2026-08-31 07:56:25  4529C  29.8 °C  56.1 %   07:56 
 1150645  2026-08-31 07:55:58  89M1A  30.4 °C  74.8 %   07:55 
 1150644  2026-08-31 07:50:42  4529D  29.2 °C  69.0 %   07:50 
 1150643  2026-08-31 07:49:27  20402  30.3 °C  56.4 %   07:49 
 1150642  2026-08-31 07:48:35  89M1B  31.1 °C  69.3 %   07:48 
 1150641  2026-08-31 07:47:12  4529A  29.2 °C  69.4 %   07:47 

Data every 20 minute.